カタログに戻る

STARLINK-36895

運用中通信SSO
NORAD 68038·PAYLOAD·🇺🇸 United States

打ち上げ Mar 1, 2026 から Vandenberg Space Force Base

Loading…

次のパス (今後24時間)

TLE

最新Source: CelesTrak SupGP

元期: Sep 14, 2026, 20:51 UTC

1 68038C 26040Z   26257.86923611 -.00045544  00000+0 -14136-2 0  2572
2 68038  97.2855 205.3178 0001954  88.8242  25.1511 15.33465496    12

AllMySatでSTARLINK-36895をリアルタイム追跡

Download on the App Store